When you browse on this site, cookies collect data to enhance your experience and personalize the content and advertising you see.
Visit our Privacy Policy to learn more. By continuing to use the site, you agree to this use of cookies and data.
  • In Belgien
  • Länderverzeichnis
  • Für 7 Tage
  • Wassertemperatur
  • Wetterkarte
  • Widgets
  • user-avatar
    Anmelden

    Stündliche Wetter Moluprei

    Heute, 19 November, Dienstag

    Zeit Temperatur Niederschläge Wind Luftdruck Luftfeuchtigkeit
    00:00 +27°C° 0 mm 1 m/S 757 mmHg 73%
    01:00 +25°C° 0 mm 0 m/S 757 mmHg 79%
    02:00 +26°C° 0 mm 1 m/S 757 mmHg 80%
    03:00 +26°C° 0 mm 1 m/S 757 mmHg 80%
    04:00 +26°C° 0 mm 1 m/S 757 mmHg 81%
    05:00 +26°C° 0 mm 1 m/S 757 mmHg 81%
    06:00 +25°C° 0 mm 2 m/S 757 mmHg 82%
    07:00 +26°C° 0 mm 2 m/S 758 mmHg 83%
    08:00 +27°C° 0 mm 2 m/S 758 mmHg 78%
    09:00 +29°C° 0 mm 2 m/S 759 mmHg 72%
    10:00 +30°C° 0 mm 2 m/S 759 mmHg 67%
    11:00 +31°C° 0 mm 2 m/S 758 mmHg 64%
    12:00 +32°C° 0 mm 2 m/S 757 mmHg 60%
    13:00 +34°C° 0 mm 2 m/S 757 mmHg 57%
    14:00 +32°C° 0.1 mm 2 m/S 757 mmHg 58%
    15:00 +32°C° 0.1 mm 2 m/S 756 mmHg 58%
    16:00 +32°C° 0.1 mm 2 m/S 756 mmHg 59%
    17:00 +31°C° 0 mm 2 m/S 756 mmHg 64%
    18:00 +29°C° 0 mm 2 m/S 756 mmHg 69%
    19:00 +28°C° 0 mm 2 m/S 757 mmHg 74%
    20:00 +27°C° 0 mm 1 m/S 757 mmHg 77%
    21:00 +27°C° 0 mm 1 m/S 758 mmHg 79%
    22:00 +26°C° 0 mm 1 m/S 758 mmHg 81%
    23:00 +26°C° 0.1 mm 1 m/S 758 mmHg 82%

    Morgen, 20 November, Mittwoch

    Zeit Temperatur Niederschläge Wind Luftdruck Luftfeuchtigkeit
    00:00 +26°C° 0.1 mm 2 m/S 758 mmHg 83%
    01:00 +25°C° 0.1 mm 3 m/S 758 mmHg 83%
    02:00 +25°C° 0 mm 2 m/S 758 mmHg 85%
    03:00 +24°C° 0 mm 2 m/S 757 mmHg 87%
    04:00 +23°C° 0 mm 2 m/S 757 mmHg 88%
    05:00 +23°C° 0 mm 2 m/S 758 mmHg 88%
    06:00 +24°C° 0 mm 2 m/S 758 mmHg 87%
    07:00 +24°C° 0 mm 1 m/S 759 mmHg 86%
    08:00 +26°C° 0 mm 1 m/S 759 mmHg 78%
    09:00 +27°C° 0 mm 2 m/S 759 mmHg 70%
    10:00 +29°C° 0 mm 2 m/S 759 mmHg 62%
    11:00 +30°C° 0 mm 2 m/S 759 mmHg 58%
    12:00 +31°C° 0 mm 2 m/S 758 mmHg 54%
    13:00 +33°C° 0 mm 3 m/S 757 mmHg 50%
    14:00 +33°C° 0 mm 3 m/S 757 mmHg 52%
    15:00 +33°C° 0 mm 3 m/S 756 mmHg 53%
    16:00 +32°C° 0 mm 2 m/S 756 mmHg 55%
    17:00 +30°C° 0 mm 2 m/S 756 mmHg 60%
    18:00 +28°C° 0 mm 2 m/S 757 mmHg 65%
    19:00 +27°C° 0 mm 1 m/S 757 mmHg 70%
    20:00 +26°C° 0 mm 1 m/S 757 mmHg 72%
    21:00 +26°C° 0 mm 1 m/S 758 mmHg 74%
    22:00 +23°C° 0 mm 0 m/S 758 mmHg 76%
    23:00 +25°C° 0 mm 1 m/S 758 mmHg 77%

    übermorgen, 21 November, Donnerstag

    Zeit Temperatur Niederschläge Wind Luftdruck Luftfeuchtigkeit
    00:00 +25°C° 0 mm 1 m/S 758 mmHg 78%
    01:00 +24°C° 0 mm 2 m/S 758 mmHg 79%
    02:00 +24°C° 0 mm 2 m/S 758 mmHg 80%
    03:00 +24°C° 0 mm 2 m/S 757 mmHg 82%
    04:00 +23°C° 0 mm 2 m/S 757 mmHg 83%
    05:00 +23°C° 0 mm 2 m/S 758 mmHg 83%
    06:00 +24°C° 0 mm 1 m/S 758 mmHg 83%
    07:00 +24°C° 0 mm 1 m/S 759 mmHg 83%
    08:00 +25°C° 0 mm 1 m/S 759 mmHg 77%
    09:00 +27°C° 0 mm 1 m/S 759 mmHg 70%
    10:00 +29°C° 0 mm 1 m/S 759 mmHg 64%
    11:00 +30°C° 0 mm 2 m/S 759 mmHg 62%
    12:00 +31°C° 0 mm 2 m/S 758 mmHg 59%
    13:00 +31°C° 0 mm 2 m/S 757 mmHg 57%
    14:00 +31°C° 0 mm 2 m/S 757 mmHg 58%
    15:00 +31°C° 0 mm 2 m/S 756 mmHg 58%
    16:00 +31°C° 0 mm 2 m/S 756 mmHg 58%
    17:00 +30°C° 0 mm 2 m/S 756 mmHg 62%
    18:00 +28°C° 0 mm 1 m/S 757 mmHg 66%
    19:00 +27°C° 0 mm 1 m/S 757 mmHg 70%
    20:00 +26°C° 0 mm 1 m/S 758 mmHg 70%
    21:00 +26°C° 0 mm 1 m/S 758 mmHg 71%
    22:00 +25°C° 0 mm 1 m/S 758 mmHg 71%
    23:00 +25°C° 0 mm 1 m/S 758 mmHg 72%

    22 November, Freitag

    Zeit Temperatur Niederschläge Wind Luftdruck Luftfeuchtigkeit
    00:00 +24°C° 0 mm 2 m/S 758 mmHg 74%
    01:00 +24°C° 0 mm 2 m/S 758 mmHg 75%
    02:00 +23°C° 0 mm 2 m/S 758 mmHg 77%
    03:00 +23°C° 0 mm 2 m/S 758 mmHg 78%
    04:00 +21°C° 0 mm 2 m/S 758 mmHg 80%
    05:00 +21°C° 0 mm 2 m/S 758 mmHg 81%
    06:00 +21°C° 0 mm 2 m/S 759 mmHg 83%
    07:00 +21°C° 0 mm 2 m/S 759 mmHg 84%
    08:00 +24°C° 0 mm 2 m/S 759 mmHg 77%
    09:00 +27°C° 0 mm 2 m/S 759 mmHg 70%
    10:00 +29°C° 0 mm 2 m/S 759 mmHg 63%
    11:00 +30°C° 0 mm 2 m/S 759 mmHg 59%
    12:00 +31°C° 0 mm 2 m/S 758 mmHg 55%
    13:00 +32°C° 0 mm 2 m/S 757 mmHg 51%
    14:00 +32°C° 0 mm 2 m/S 757 mmHg 52%
    15:00 +32°C° 0 mm 2 m/S 756 mmHg 53%
    16:00 +32°C° 0 mm 2 m/S 756 mmHg 54%
    17:00 +31°C° 0 mm 2 m/S 756 mmHg 60%
    18:00 +29°C° 0 mm 2 m/S 756 mmHg 65%
    19:00 +27°C° 0 mm 1 m/S 757 mmHg 70%
    20:00 +27°C° 0 mm 1 m/S 757 mmHg 71%
    21:00 +26°C° 0 mm 1 m/S 758 mmHg 72%
    22:00 +26°C° 0 mm 1 m/S 758 mmHg 74%
    23:00 +26°C° 0 mm 1 m/S 758 mmHg 75%

    23 November, Samstag

    Zeit Temperatur Niederschläge Wind Luftdruck Luftfeuchtigkeit
    00:00 +25°C° 0 mm 1 m/S 758 mmHg 75%
    01:00 +25°C° 0 mm 1 m/S 757 mmHg 76%
    02:00 +25°C° 0 mm 1 m/S 757 mmHg 77%
    03:00 +25°C° 0 mm 1 m/S 757 mmHg 77%
    04:00 +25°C° 0 mm 1 m/S 757 mmHg 77%
    05:00 +25°C° 0 mm 1 m/S 757 mmHg 78%
    06:00 +25°C° 0 mm 1 m/S 758 mmHg 79%
    07:00 +25°C° 0 mm 2 m/S 758 mmHg 80%
    08:00 +26°C° 0 mm 2 m/S 759 mmHg 73%
    09:00 +28°C° 0 mm 2 m/S 759 mmHg 67%
    10:00 +30°C° 0 mm 2 m/S 759 mmHg 61%
    11:00 +31°C° 0 mm 2 m/S 758 mmHg 57%
    12:00 +32°C° 0 mm 2 m/S 758 mmHg 53%
    13:00 +34°C° 0 mm 2 m/S 757 mmHg 50%
    14:00 +34°C° 0 mm 2 m/S 756 mmHg 50%
    15:00 +34°C° 0 mm 2 m/S 756 mmHg 50%
    16:00 +34°C° 0 mm 2 m/S 756 mmHg 51%
    17:00 +31°C° 0 mm 2 m/S 756 mmHg 55%
    18:00 +30°C° 0 mm 1 m/S 756 mmHg 60%
    19:00 +28°C° 0 mm 1 m/S 757 mmHg 64%
    20:00 +28°C° 0 mm 1 m/S 757 mmHg 66%
    21:00 +27°C° 0 mm 1 m/S 757 mmHg 68%
    22:00 +26°C° 0 mm 1 m/S 758 mmHg 70%
    23:00 +26°C° 0 mm 1 m/S 757 mmHg 71%

    24 November, Sonntag

    Zeit Temperatur Niederschläge Wind Luftdruck Luftfeuchtigkeit
    00:00 +26°C° 0 mm 1 m/S 757 mmHg 72%
    01:00 +25°C° 0 mm 1 m/S 756 mmHg 73%
    02:00 +25°C° 0 mm 1 m/S 756 mmHg 73%
    03:00 +25°C° 0 mm 1 m/S 756 mmHg 74%
    04:00 +25°C° 0 mm 1 m/S 756 mmHg 75%
    05:00 +25°C° 0 mm 1 m/S 757 mmHg 75%
    06:00 +25°C° 0 mm 1 m/S 757 mmHg 76%
    07:00 +25°C° 0 mm 1 m/S 757 mmHg 77%
    08:00 +27°C° 0 mm 2 m/S 758 mmHg 71%
    09:00 +29°C° 0 mm 2 m/S 758 mmHg 64%
    10:00 +31°C° 0 mm 3 m/S 758 mmHg 58%
    11:00 +32°C° 0 mm 2 m/S 758 mmHg 55%
    12:00 +34°C° 0 mm 2 m/S 757 mmHg 52%
    13:00 +34°C° 0 mm 2 m/S 756 mmHg 49%
    14:00 +34°C° 0 mm 2 m/S 756 mmHg 49%
    15:00 +34°C° 0 mm 2 m/S 755 mmHg 50%
    16:00 +34°C° 0 mm 2 m/S 755 mmHg 51%
    17:00 +32°C° 0 mm 1 m/S 756 mmHg 55%
    18:00 +30°C° 0 mm 1 m/S 756 mmHg 59%
    19:00 +28°C° 0 mm 1 m/S 756 mmHg 64%
    20:00 +28°C° 0 mm 1 m/S 757 mmHg 65%
    21:00 +27°C° 0 mm 1 m/S 757 mmHg 67%
    22:00 +27°C° 0 mm 1 m/S 757 mmHg 69%
    23:00 +27°C° 0 mm 1 m/S 757 mmHg 70%
    Mehr zeigen